Weather History for Cancun, Mexico

Change the Weather History Date:

Tuesday, July 23, 2013

  Actual Average Record
Temperature  
Mean Temperature 82 °F -  
Max Temperature 87 °F 90 °F 96 °F (2000)
Min Temperature 78 °F 73 °F 69 °F (2000)
Cooling Degree Days 18    
Growing Degree Days 32 (Base 50)    
Moisture  
Dew Point 75 °F    
Average Humidity 77    
Maximum Humidity 89    
Minimum Humidity 66    
Precipitation  
Precipitation 0.00 in - - ()
Sea Level Pressure  
Sea Level Pressure 30.02 in    
Wind  
Wind Speed 6 mph ()    
Max Wind Speed 14 mph    
Max Gust Speed -    
Visibility 7.0 miles    
Events      
Averages and records for this station are not official NWS values.
T = Trace of Precipitation, MM = Missing Value Source: Averaged Metar Reports

Daily Weather History Graph

Daily Weather History Graph

Search for Another Location

Airport:

Trip Planner

Search our weather history database for the weather conditions in past years. The results will help you decide how hot, cold, wet, or windy it might be!

Date:

Astronomy

Jul. 23, 2013 Rise Set
Actual Time 6:18 AM CDT 7:29 PM CDT
Civil Twilight 5:53 AM CDT 7:53 PM CDT
Nautical Twilight 5:25 AM CDT 8:22 PM CDT
Astronomical Twilight 4:56 AM CDT 8:51 PM CDT
Moon 8:17 PM CDT (7/23) 7:10 AM CDT (7/23)
Length of Visible Light 13h 59m
Length of Day
13h 11m
Full, 99% of the Moon is Illuminated
Jul 23
Full
Jul 29
Last Quarter
Aug 6
New
Aug 14
First Quarter
Aug 20
Full

Hourly Weather History & Observations

Time (CDT) Temp. Heat Index Dew Point Humidity Pressure Visibility Wind Dir Wind Speed Gust Speed Precip Events Conditions
12:45 AM 82.4 °F 89.5 °F 75.2 °F 79% 30.03 in 7.0 mi East 6.9 mph - N/A   Mostly Cloudy
1:44 AM 82.4 °F 89.5 °F 75.2 °F 79% 30.05 in 7.0 mi East 6.9 mph - N/A   Mostly Cloudy
2:43 AM 80.6 °F 86.2 °F 75.2 °F 84% 30.03 in 7.0 mi ESE 9.2 mph - N/A   Mostly Cloudy
3:46 AM 80.6 °F 86.2 °F 75.2 °F 84% 29.99 in 7.0 mi East 9.2 mph - N/A   Scattered Clouds
4:45 AM 80.6 °F 86.2 °F 75.2 °F 84% 30.01 in 7.0 mi SE 5.8 mph - N/A   Partly Cloudy
5:44 AM 78.8 °F - 75.2 °F 89% 30.01 in 7.0 mi East 5.8 mph - N/A   Partly Cloudy
6:43 AM 78.8 °F - 75.2 °F 89% 30.02 in 7.0 mi East 5.8 mph - N/A   Scattered Clouds
7:47 AM 84.2 °F 92.3 °F 75.2 °F 74% 30.04 in 7.0 mi East 6.9 mph - N/A   Scattered Clouds
8:42 AM 84.2 °F 92.3 °F 75.2 °F 74% 30.06 in 7.0 mi East 9.2 mph - N/A   Scattered Clouds
9:42 AM 86.0 °F 96.9 °F 77.0 °F 74% 30.05 in 7.0 mi East 5.8 mph - N/A   Mostly Cloudy
10:48 AM 87.8 °F 97.6 °F 75.2 °F 66% 30.06 in 7.0 mi ESE 9.2 mph - N/A   Mostly Cloudy
11:40 AM 86.0 °F 95.1 °F 75.2 °F 70% 30.06 in 7.0 mi East 10.4 mph - N/A   Mostly Cloudy
12:42 PM 84.2 °F 94.1 °F 77.0 °F 79% 30.05 in 7.0 mi East 6.9 mph - N/A   Mostly Cloudy
1:42 PM 86.0 °F 96.9 °F 77.0 °F 74% 30.03 in 7.0 mi East 10.4 mph - N/A   Mostly Cloudy
2:43 PM 87.8 °F 97.6 °F 75.2 °F 66% 30.01 in 7.0 mi SSE 13.8 mph - N/A   Scattered Clouds
3:41 PM 86.0 °F 93.4 °F 73.4 °F 66% 30.00 in 7.0 mi East 8.1 mph - N/A   Scattered Clouds
4:41 PM 86.0 °F 95.1 °F 75.2 °F 70% 29.98 in 7.0 mi ESE 8.1 mph - N/A   Scattered Clouds
5:41 PM 86.0 °F 95.1 °F 75.2 °F 70% 29.97 in 7.0 mi East 8.1 mph - N/A   Scattered Clouds
6:46 PM 84.2 °F 90.9 °F 73.4 °F 70% 29.97 in 7.0 mi East 8.1 mph - N/A   Partly Cloudy
7:44 PM 82.4 °F 89.5 °F 75.2 °F 79% 29.99 in 7.0 mi East 6.9 mph - N/A   Partly Cloudy
8:42 PM 82.4 °F 89.5 °F 75.2 °F 79% 30.01 in 7.0 mi East 2.3 mph - N/A   Partly Cloudy
9:43 PM 82.4 °F 89.5 °F 75.2 °F 79% 30.01 in 7.0 mi East 4.6 mph - N/A   Partly Cloudy
10:44 PM 80.6 °F 86.2 °F 75.2 °F 84% 30.04 in 7.0 mi East 4.6 mph - N/A   Scattered Clouds
11:43 PM 80.6 °F 85.4 °F 73.4 °F 79% 30.04 in 7.0 mi Calm Calm - N/A   Scattered Clouds